Location: Antichan
(42.9728°N, 0.6667°E)
Time: 18:54:34
(UTC+00:00)

Cosmos 2333 Rocket - Pass Details

Date: 15 August 2020
Orbit: 837 x 864 km, 70.8° (Epoch: 20 September)

Event Time Altitude Azimuth Distance (km) Brightness Sun altitude
Rises 21:06:07 0° 344° (NNW) 3,454 6.4 -20.5°
Reaches altitude 10° 21:09:14 10° 360° (N) 2,512 5.2 -21.0°
Maximum altitude 21:13:34 21° 49° (NE) 1,830 3.9 -21.5°
Enters shadow 21:15:23 19° 74° (ENE) 1,964 3.8 -21.7°
